Location: Derby
(52.9213°N, 1.4761°W)
Time: 16:25:53
(UTC+01:00)

Vanguard 1 - Pass Details

Date: 27 May 2025
Orbit: 649 x 3822 km, 34.3° (Epoch: 14 June)

Event Time Altitude Azimuth Distance (km) Brightness Sun altitude
Rises 13:28:34 0° 184° (S) 7,836 15.1 58.1°
Reaches altitude 10° 13:37:29 10° 167° (SSE) 6,918 15.0 57.8°
Maximum altitude 13:48:39 16° 138° (SE) 6,166 14.6 57.3°
Drops below altitude 10° 13:58:38 10° 108° (ESE) 6,174 14.2 56.7°
Sets 14:05:31 0° 90° (E) 6,654 14.2 56.3°
